Regional Weather Roundup
Issued by NWS

Home | Current Version | Previous Version | Graphics & Text | Print | Product List | Glossary On
Versions: 1 2 3 4 5 6 7 8 9 10 11 12 13 14 15 16 17 18 19 20 21 22 23 24 25 26 27 28 29 30 31 32 33 34 35 36 37 38 39 40 41 42 43 44 45 46 47 48 49 50
000
ASUS45 KABQ 082101
RWRNM
NEW MEXICO REGIONAL WEATHER ROUNDUP
NATIONAL WEATHER SERVICE ALBUQUERQUE NM
200 PM MST THU DEC 08 2016

NOTE: "FAIR" MEANS FEW OR NO CLOUDS BELOW 12,000 FEET AGL WITH NO
       SIGNIFICANT WEATHER OR OBSTRUCTIONS TO VISION.

      THIS PRODUCT IS RELEASED AS TWO VERSIONS.  ONE VERSION NEAR
      THE TOP OF THE HOUR CONTAINING PRELIMINARY DATA FROM ALBUQUERQUE
      AND OTHER STATIONS.  A FINAL VERSION WITH ADDITIONAL DATA IS
      ISSUED ABOUT 10 MINUTES AFTER THE HOUR.

NMZ501-503-504-510>518-082200-
NORTHWEST PLATEAU/NORTHCENTRAL MOUNTAINS

CITY           SKY/WX    TMP DP  RH WIND       PRES   REMARKS
FARMINGTON     CLOUDY    39  10  30 VRB7      30.27F WCI  34
SANTA FE       FAIR      30  13  49 SE8       30.30F WCI  22
TAOS           FAIR      30  12  47 SW9       30.28F WCI  22

$$
NMZ402-403-502-505>509-082200-
WESTCENTRAL MOUNTAINS/SOUTHWEST MOUNTAINS

CITY           SKY/WX    TMP DP  RH WIND       PRES   REMARKS
GALLUP         FAIR      47  22  37 W14       30.25F
GRANTS         FAIR      40  17  39 SE9       30.27F WCI  34

$$
NMZ407-409-411-412-082200-
SOUTHERN DESERTS

CITY           SKY/WX    TMP DP  RH WIND       PRES   REMARKS
DEMING         FAIR      49  30  48 E8        30.31F
HOLLOMAN AFB   CLOUDY    42  25  50 S9        30.40F
T OR C         PTSUNNY   42  23  46 SE6       30.31F

$$
NMZ519>523-082200-
CENTRAL VALLEYS/CENTRAL HIGHLANDS

CITY           SKY/WX    TMP DP  RH WIND       PRES   REMARKS
ALBUQUERQUE    FAIR      37  15  40 CALM      30.33F
DOUBLE EAGLE   MOSUNNY   34  16  47 VRB6      30.32F WCI  29
CLINES CORNERS CLOUDY    20  17  88 S9        30.30F WCI   9
BELEN          FAIR      37  16  42 CALM      30.33F
SOCORRO        NOT AVBL

$$
NMZ524>526-539-540-082200-
SOUTHCENTRAL MOUNTAINS

CITY           SKY/WX    TMP DP  RH WIND       PRES   REMARKS
RUIDOSO        NOT AVBL

$$
NMZ527>531-082200-
NORTHEAST HIGHLANDS/NORTHEAST PLAINS

CITY           SKY/WX    TMP DP  RH WIND       PRES   REMARKS
LAS VEGAS      PTSUNNY   21  13  71 S21       30.25F WCI   5
RATON          FLURRIES  19  10  68 S12       30.29F WCI   7
CLAYTON        CLOUDY    21   9  59 S14       30.40F WCI   8

$$
NMZ532>537-082200-
EASTCENTRAL PLAINS

CITY           SKY/WX    TMP DP  RH WIND       PRES   REMARKS
TUCUMCARI      CLOUDY    23  12  62 SE7       30.47F WCI  15
CANNON AFB     CLOUDY    23  12  64 VRB3      30.48S
CLOVIS AIRPORT CLOUDY    23   9  54 E6        30.48S WCI  16

$$
NMZ028-029-538-082200-
SOUTHEAST PLAINS

CITY           SKY/WX    TMP DP  RH WIND       PRES   REMARKS
ROSWELL        CLOUDY    31  18  58 S9        30.48F WCI  23
ARTESIA        CLOUDY    30  21  69 SE6       30.50F WCI  24
CARLSBAD       NOT AVBL


$$




USA.gov is the U.S. government's official web portal to all federal, state and local government web resources and services.